Date,TemperatureHighF,TemperatureAvgF,TemperatureLowF,DewpointHighF,DewpointAvgF,DewpointLowF,HumidityHigh,HumidityAvg,HumidityLow,PressureMaxIn,PressureMinIn,WindSpeedMaxMPH,WindSpeedAvgMPH,GustSpeedMaxMPH,PrecipitationSumIn
2013-12-1,72.0,60.1,54.5,61.0,55.1,51.0,92,84,67,30.16,29.92,2,0,7,0.00
2013-12-2,69.8,58.9,52.2,56.0,53.8,49.0,96,84,57,29.92,29.75,3,0,6,0.00
2013-12-3,77.6,60.9,49.1,60.0,54.8,47.0,97,82,52,29.90,29.80,0,0,7,0.00
2013-12-4,81.1,67.2,56.3,67.0,61.6,54.0,97,83,57,30.02,29.88,3,0,8,0.00
2013-12-5,84.9,69.6,56.9,69.0,62.5,55.0,98,80,52,30.09,29.99,3,0,8,0.01
2013-12-6,84.1,71.9,62.7,71.0,65.1,61.0,97,81,56,30.09,30.01,7,0,11,0.00
2013-12-7,85.5,73.1,65.0,71.0,66.5,63.0,97,81,51,30.15,30.05,4,0,11,0.00
2013-12-8,72.8,66.2,63.1,66.0,63.5,61.0,97,91,78,30.18,30.06,3,0,9,0.00
2013-12-9,85.3,70.9,60.7,71.0,65.6,60.0,100,85,55,30.10,29.99,6,0,12,0.00
2013-12-10,79.4,68.4,54.2,70.0,63.3,42.0,95,84,64,30.18,29.95,5,0,12,0.04
2013-12-11,66.1,57.5,49.5,58.0,50.8,42.0,84,78,64,30.22,30.14,5,0,10,0.00
2013-12-12,65.8,56.1,43.9,50.0,37.7,26.0,80,54,22,30.30,30.16,4,0,8,0.00
2013-12-13,66.9,54.0,42.3,55.0,48.0,38.0,94,81,62,30.26,30.07,6,0,11,0.00
2013-12-14,76.8,66.0,53.6,68.0,62.6,51.0,97,89,71,30.07,29.81,8,0,15,0.00
2013-12-15,66.8,60.1,48.6,66.0,56.5,41.0,98,88,74,30.09,29.77,4,0,10,0.06
2013-12-16,60.2,47.4,38.3,42.0,38.9,34.0,87,74,48,30.18,30.08,2,0,6,0.00
2013-12-17,68.8,50.2,37.5,44.0,38.9,33.0,96,70,28,30.20,30.09,4,0,5,0.00
2013-12-18,65.5,52.6,41.2,43.0,35.8,23.0,88,58,23,30.23,30.12,6,0,9,0.00
2013-12-19,72.7,53.7,37.9,56.0,47.0,35.0,96,80,53,30.23,30.12,4,0,7,0.00
2013-12-20,79.0,61.3,47.0,62.0,55.0,45.0,98,82,54,30.15,30.06,4,0,8,0.01
2013-12-21,85.7,70.2,57.3,70.0,63.4,56.0,98,81,46,30.07,29.94,4,0,12,0.00
2013-12-22,84.7,74.9,69.4,71.0,68.8,67.0,96,82,58,30.06,29.98,10,0,17,0.01
2013-12-23,83.4,74.4,66.0,70.0,68.0,62.0,95,81,61,30.07,29.97,5,0,15,0.00
2013-12-24,65.0,55.1,44.5,61.0,42.2,29.0,88,65,32,30.23,30.04,7,0,13,0.02
2013-12-25,60.4,50.9,40.6,53.0,44.8,31.0,89,80,56,30.23,30.17,7,0,16,0.00
2013-12-26,58.1,54.1,50.2,52.0,48.8,46.0,92,82,71,30.20,30.10,5,0,9,0.00
2013-12-27,60.9,56.3,51.7,55.0,51.6,47.0,90,84,73,30.24,30.14,5,0,10,0.00
2013-12-28,70.6,64.9,58.7,68.0,60.6,50.0,95,86,74,30.21,29.91,4,0,9,0.02
2013-12-29,71.3,68.9,58.9,70.0,65.8,57.0,96,90,84,29.93,29.80,4,0,13,0.59
2013-12-30,66.8,56.6,49.5,56.0,48.5,44.0,92,76,47,30.12,29.93,3,0,8,0.00
2013-12-31,62.6,57.1,54.1,52.0,48.6,45.0,91,74,54,30.25,30.11,4,0,5,0.00